• In Hungary
  • List of Countries
  • For 7 days
  • Water Temperature
  • Satellite Maps
  • Weather Map
  • News
  • Weather Widgets
  • user-avatar
    Login

    Hourly Weather Hobart

    Today, 16 November, Friday

    Time Temperature Precipitation Wind Pressure Humidity
    00:00 +8°C° 0 mm 1 mps 755 mmHg 77%
    01:00 +7°C° 0 mm 2 mps 754 mmHg 79%
    02:00 +6°C° 0 mm 2 mps 754 mmHg 84%
    03:00 +5°C° 0 mm 2 mps 754 mmHg 88%
    04:00 +5°C° 0 mm 2 mps 753 mmHg 94%
    05:00 +7°C° 0 mm 2 mps 753 mmHg 87%
    06:00 +8°C° 0 mm 2 mps 753 mmHg 80%
    07:00 +10°C° 0 mm 3 mps 753 mmHg 73%
    08:00 +12°C° 0 mm 2 mps 753 mmHg 68%
    09:00 +14°C° 0 mm 2 mps 752 mmHg 64%
    10:00 +15°C° 0 mm 2 mps 753 mmHg 57%
    11:00 +15°C° 0.2 mm 2 mps 752 mmHg 59%
    12:00 +15°C° 0.2 mm 2 mps 752 mmHg 61%
    13:00 +14°C° 0.2 mm 3 mps 752 mmHg 62%
    14:00 +14°C° 0.4 mm 3 mps 752 mmHg 62%
    15:00 +14°C° 0.4 mm 3 mps 751 mmHg 61%
    16:00 +14°C° 0.4 mm 3 mps 751 mmHg 61%
    17:00 +13°C° 0.1 mm 3 mps 751 mmHg 66%
    18:00 +11°C° 0.1 mm 3 mps 752 mmHg 71%
    19:00 +10°C° 0.1 mm 2 mps 752 mmHg 77%
    20:00 +9°C° 0 mm 2 mps 752 mmHg 82%
    21:00 +7°C° 0 mm 2 mps 753 mmHg 87%
    22:00 +6°C° 0 mm 2 mps 753 mmHg 92%
    23:00 +5°C° 0 mm 2 mps 753 mmHg 93%

    Tomorrow, 17 November, Saturday

    Time Temperature Precipitation Wind Pressure Humidity
    00:00 +5°C° 0 mm 2 mps 753 mmHg 94%
    01:00 +4°C° 0 mm 2 mps 753 mmHg 95%
    02:00 +4°C° 0 mm 2 mps 753 mmHg 96%
    03:00 +4°C° 0 mm 2 mps 753 mmHg 96%
    04:00 +4°C° 0 mm 2 mps 753 mmHg 97%
    05:00 +6°C° 0 mm 2 mps 753 mmHg 90%
    06:00 +8°C° 0 mm 3 mps 753 mmHg 84%
    07:00 +10°C° 0 mm 3 mps 753 mmHg 77%
    08:00 +12°C° 0 mm 3 mps 754 mmHg 70%
    09:00 +14°C° 0 mm 3 mps 754 mmHg 62%
    10:00 +15°C° 0 mm 4 mps 754 mmHg 54%
    11:00 +18°C° 0 mm 4 mps 754 mmHg 50%
    12:00 +19°C° 0 mm 4 mps 754 mmHg 46%
    13:00 +20°C° 0 mm 4 mps 754 mmHg 42%
    14:00 +20°C° 0 mm 4 mps 754 mmHg 43%
    15:00 +20°C° 0 mm 4 mps 754 mmHg 43%
    16:00 +19°C° 0 mm 4 mps 754 mmHg 44%
    17:00 +17°C° 0 mm 4 mps 754 mmHg 54%
    18:00 +14°C° 0 mm 4 mps 755 mmHg 63%
    19:00 +12°C° 0 mm 3 mps 755 mmHg 73%
    20:00 +11°C° 0 mm 3 mps 755 mmHg 80%
    21:00 +9°C° 0 mm 2 mps 756 mmHg 87%
    22:00 +9°C° 0 mm 1 mps 756 mmHg 94%
    23:00 +9°C° 0 mm 1 mps 756 mmHg 95%

    Day after tomorrow, 18 November, Sunday

    Time Temperature Precipitation Wind Pressure Humidity
    00:00 +9°C° 0 mm 1 mps 756 mmHg 95%
    01:00 +9°C° 0 mm 1 mps 755 mmHg 95%
    02:00 +8°C° 0 mm 1 mps 755 mmHg 96%
    03:00 +8°C° 0 mm 1 mps 755 mmHg 97%
    04:00 +8°C° 0 mm 1 mps 755 mmHg 98%
    05:00 +9°C° 0 mm 1 mps 755 mmHg 92%
    06:00 +11°C° 0 mm 1 mps 755 mmHg 85%
    07:00 +12°C° 0 mm 1 mps 756 mmHg 79%
    08:00 +15°C° 0 mm 1 mps 756 mmHg 68%
    09:00 +18°C° 0 mm 1 mps 755 mmHg 57%
    10:00 +21°C° 0 mm 1 mps 755 mmHg 46%
    11:00 +21°C° 0 mm 2 mps 755 mmHg 43%
    12:00 +22°C° 0 mm 3 mps 755 mmHg 39%
    13:00 +25°C° 0 mm 3 mps 754 mmHg 35%
    14:00 +23°C° 0 mm 4 mps 754 mmHg 39%
    15:00 +22°C° 0 mm 4 mps 754 mmHg 42%
    16:00 +21°C° 0 mm 4 mps 754 mmHg 46%
    17:00 +19°C° 0 mm 4 mps 754 mmHg 56%
    18:00 +17°C° 0 mm 4 mps 754 mmHg 65%
    19:00 +14°C° 0 mm 4 mps 754 mmHg 75%
    20:00 +13°C° 0 mm 3 mps 754 mmHg 82%
    21:00 +11°C° 0 mm 3 mps 754 mmHg 90%
    22:00 +10°C° 0 mm 3 mps 754 mmHg 97%
    23:00 +9°C° 0 mm 3 mps 754 mmHg 97%

    19 November, Monday

    Time Temperature Precipitation Wind Pressure Humidity
    00:00 +9°C° 0 mm 3 mps 753 mmHg 98%
    01:00 +9°C° 0 mm 3 mps 753 mmHg 98%
    02:00 +9°C° 0 mm 3 mps 753 mmHg 98%
    03:00 +8°C° 0 mm 3 mps 753 mmHg 98%
    04:00 +8°C° 0 mm 3 mps 752 mmHg 98%
    05:00 +10°C° 0 mm 4 mps 752 mmHg 90%
    06:00 +11°C° 0 mm 4 mps 752 mmHg 82%
    07:00 +13°C° 0 mm 4 mps 752 mmHg 74%
    08:00 +16°C° 0 mm 5 mps 752 mmHg 63%
    09:00 +19°C° 0 mm 5 mps 751 mmHg 51%
    10:00 +22°C° 0 mm 5 mps 751 mmHg 40%
    11:00 +23°C° 0 mm 6 mps 751 mmHg 36%
    12:00 +26°C° 0 mm 6 mps 750 mmHg 33%
    13:00 +27°C° 0 mm 6 mps 750 mmHg 29%
    14:00 +27°C° 0 mm 7 mps 749 mmHg 31%
    15:00 +27°C° 0 mm 7 mps 748 mmHg 32%
    16:00 +26°C° 0 mm 7 mps 748 mmHg 34%
    17:00 +23°C° 0 mm 7 mps 748 mmHg 41%
    18:00 +21°C° 0 mm 6 mps 748 mmHg 49%
    19:00 +19°C° 0 mm 6 mps 748 mmHg 56%
    20:00 +16°C° 0 mm 6 mps 747 mmHg 63%
    21:00 +14°C° 0 mm 5 mps 747 mmHg 70%
    22:00 +12°C° 0 mm 5 mps 747 mmHg 77%
    23:00 +12°C° 0 mm 5 mps 747 mmHg 79%

    20 November, Tuesday

    Time Temperature Precipitation Wind Pressure Humidity
    00:00 +12°C° 0 mm 5 mps 746 mmHg 81%
    01:00 +10°C° 0 mm 5 mps 746 mmHg 82%
    02:00 +12°C° 0 mm 5 mps 745 mmHg 80%
    03:00 +12°C° 0 mm 5 mps 744 mmHg 77%
    04:00 +12°C° 0 mm 5 mps 744 mmHg 75%
    05:00 +13°C° 0 mm 5 mps 743 mmHg 71%
    06:00 +14°C° 0 mm 5 mps 743 mmHg 68%
    07:00 +15°C° 0 mm 5 mps 742 mmHg 64%
    08:00 +16°C° 0.1 mm 6 mps 742 mmHg 64%
    09:00 +17°C° 0.1 mm 6 mps 741 mmHg 64%
    10:00 +20°C° 0.1 mm 6 mps 741 mmHg 64%
    11:00 +19°C° 0.5 mm 6 mps 740 mmHg 71%
    12:00 +19°C° 0.5 mm 5 mps 739 mmHg 78%
    13:00 +19°C° 0.5 mm 5 mps 738 mmHg 85%
    14:00 +19°C° 0.9 mm 5 mps 738 mmHg 84%
    15:00 +20°C° 0.9 mm 4 mps 737 mmHg 84%
    16:00 +20°C° 0.9 mm 4 mps 736 mmHg 84%
    17:00 +19°C° 0.6 mm 4 mps 736 mmHg 86%
    18:00 +18°C° 0.6 mm 3 mps 736 mmHg 89%
    19:00 +17°C° 0.6 mm 3 mps 736 mmHg 91%
    20:00 +16°C° 0.4 mm 2 mps 735 mmHg 93%
    21:00 +15°C° 0.4 mm 2 mps 735 mmHg 95%
    22:00 +14°C° 0.4 mm 2 mps 735 mmHg 97%
    23:00 +13°C° 0 mm 2 mps 735 mmHg 97%

    21 November, Wednesday

    Time Temperature Precipitation Wind Pressure Humidity
    00:00 +13°C° 0 mm 2 mps 735 mmHg 97%
    01:00 +11°C° 0 mm 3 mps 734 mmHg 97%
    02:00 +10°C° 0 mm 3 mps 734 mmHg 97%
    03:00 +10°C° 0 mm 3 mps 734 mmHg 97%
    04:00 +9°C° 0 mm 3 mps 734 mmHg 97%
    05:00 +10°C° 0 mm 3 mps 734 mmHg 92%
    06:00 +10°C° 0 mm 3 mps 734 mmHg 88%
    07:00 +11°C° 0 mm 3 mps 734 mmHg 83%
    08:00 +12°C° 0 mm 3 mps 734 mmHg 71%
    09:00 +14°C° 0 mm 3 mps 734 mmHg 58%
    10:00 +17°C° 0 mm 3 mps 733 mmHg 45%
    11:00 +19°C° 0 mm 3 mps 733 mmHg 42%
    12:00 +20°C° 0 mm 3 mps 732 mmHg 38%
    13:00 +21°C° 0 mm 4 mps 732 mmHg 35%
    14:00 +20°C° 0 mm 4 mps 732 mmHg 38%
    15:00 +19°C° 0 mm 4 mps 731 mmHg 42%
    16:00 +17°C° 0 mm 5 mps 731 mmHg 45%
    17:00 +15°C° 0 mm 4 mps 731 mmHg 54%
    18:00 +14°C° 0 mm 4 mps 732 mmHg 63%
    19:00 +12°C° 0 mm 4 mps 732 mmHg 71%
    20:00 +11°C° 0 mm 4 mps 732 mmHg 76%
    21:00 +10°C° 0 mm 4 mps 732 mmHg 81%
    22:00 +9°C° 0 mm 3 mps 733 mmHg 85%
    23:00 +7°C° 0 mm 4 mps 732 mmHg 88%
    Show more